Regional Weather Roundup
Issued by NWS

Home | Current Version | Previous Version | Text Only | Print | Product List | Glossary Off
Versions: 1 2 3 4 5 6 7 8 9 10 11 12 13 14 15 16 17 18 19 20 21 22 23 24 25 26 27 28 29 30 31 32 33 34 35 36 37 38 39 40 41 42 43 44 45 46 47 48 49 50

039
ASUS43 KLMK 010710
RWRKY
KENTUCKY REGIONAL WEATHER ROUNDUP
NATIONAL WEATHER SERVICE LOUISVILLE KY
300 AM EDT SAT OCT 01 2016

NOTE "FAIR" INDICATES FEW OR NO CLOUDS BELOW 12,000 FEET
WITH NO SIGNIFICANT WEATHER AND/OR OBSTRUCTIONS TO VISIBILITY.

KYZ001>023-026-027-061>063-070>075-010800-
WESTERN AND SOUTH CENTRAL KENTUCKY

CITY           SKY/WX    TMP DP  RH WIND       PRES   REMARKS
PADUCAH        CLOUDY    62  59  90 W6        30.00S
HENDERSON      CLOUDY    59  55  88 S5        29.98S
OWENSBORO      NOT AVBL
HOPKINSVILLE   CLOUDY    59  59 100 S7        30.01F
BOWLING GREEN  CLOUDY    59  57  93 CALM      30.03S
GLASGOW        CLOUDY    57  57 100 CALM      30.04R
$$

KYZ024-025-028>034-038-045-046-053-010800-
NORTH CENTRAL KENTUCKY

CITY           SKY/WX    TMP DP  RH WIND       PRES   REMARKS
LOUISVILLE/SDF FOG       56  54  93 SE6       30.02S VSB 3/4
LOUISVILLE/LOU CLOUDY    56  54  93 CALM      30.03S FOG
FORT KNOX      FOG       53  53 100 S3        30.00S VSB 1/4
$$

KYZ035>037-039>044-047>052-055>060-089>105-010800-
NORTHEAST KENTUCKY

CITY           SKY/WX    TMP DP  RH WIND       PRES   REMARKS
LEXINGTON      CLOUDY    57  54  89 S6        30.05R
COVINGTON      CLOUDY    56  54  93 S5        30.02S
FRANKFORT      MOCLDY    57  54  89 S6        30.03R
$$

KYZ054-064>069-076>088-106>120-010800-
SOUTHEAST KENTUCKY

CITY           SKY/WX    TMP DP  RH WIND       PRES   REMARKS
JACKSON        CLEAR     52  49  89 S3        30.07S
LONDON         CLEAR     51  48  89 CALM      30.07S
SOMERSET       CLEAR     52  52 100 CALM      30.06F
MIDDLESBORO    CLOUDY    48  48 100 CALM      30.10S
MONTICELLO     CLOUDY    52  51  97 CALM      30.07S
$$





USA.gov is the U.S. government's official web portal to all federal, state and local government web resources and services.